| time (UTC) | temp F | wind direction | speed knots | gust knots | rain 1hr in | rain 24hr in | rain mn in | humidity % | barometer mb |
| 20260510225001 | 47 | 267 | 7.0 | 8.7 | 0.00 | 0.00 | 0.00 | 68 | 1025.7 |
| 20260510224502 | 47 | 260 | 5.2 | 5.2 | 0.00 | 0.00 | 0.00 | 64 | 1025.5 |
| 20260510224001 | 47 | 294 | 7.8 | 8.7 | 0.00 | 0.00 | 0.00 | 61 | 1025.9 |
| 20260510223502 | 47 | 301 | 6.1 | 7.8 | 0.00 | 0.00 | 0.00 | 64 | 1025.6 |
| 20260510222001 | 47 | 256 | 6.1 | 7.8 | 0.00 | 0.00 | 0.00 | 65 | 1025.1 |
| 20260510221002 | 49 | 273 | 7.8 | 8.7 | 0.00 | 0.00 | 0.00 | 61 | 1025.4 |
| 20260510220002 | 48 | 290 | 8.7 | 10.4 | 0.00 | 0.00 | 0.00 | 61 | 1025.0 |
| 20260510215501 | 48 | 296 | 7.0 | 8.7 | 0.00 | 0.00 | 0.00 | 60 | 1024.9 |
| 20260510214002 | 47 | 256 | 7.8 | 8.7 | 0.00 | 0.00 | 0.00 | 70 | 1025.0 |
| 20260510213502 | 47 | 272 | 7.8 | 9.6 | 0.00 | 0.00 | 0.00 | 68 | 1025.0 |
| 20260510213002 | 47 | 255 | 11.3 | 12.2 | 0.00 | 0.00 | 0.00 | 70 | 1024.9 |
| 20260510212502 | 47 | 272 | 12.2 | 13.0 | 0.00 | 0.00 | 0.00 | 66 | 1025.1 |
| 20260510211502 | 47 | 262 | 11.3 | 12.2 | 0.00 | 0.00 | 0.00 | 66 | 1025.1 |
| 20260510211001 | 47 | 284 | 10.4 | 12.2 | 0.00 | 0.00 | 0.00 | 65 | 1024.9 |
| 20260510210002 | 46 | 308 | 7.8 | 10.4 | 0.00 | 0.00 | 0.00 | 66 | 1024.8 |
| 20260510205502 | 46 | 328 | 11.3 | 13.0 | 0.00 | 0.00 | 0.00 | 67 | 1024.8 |
| 20260510205001 | 46 | 282 | 8.7 | 10.4 | 0.00 | 0.00 | 0.00 | 66 | 1024.7 |
| 20260510204502 | 46 | 313 | 4.3 | 5.2 | 0.00 | 0.00 | 0.00 | 66 | 1024.7 |
| 20260510204001 | 46 | 261 | 10.4 | 12.2 | 0.00 | 0.00 | 0.00 | 66 | 1024.9 |
| 20260510203502 | 47 | 1 | 6.1 | 8.7 | 0.00 | 0.00 | 0.00 | 63 | 1024.9 |
| 20260510203002 | 47 | 339 | 3.5 | 5.2 | 0.00 | 0.00 | 0.00 | 63 | 1024.8 |
| 20260510202002 | 47 | 298 | 6.1 | 7.8 | 0.00 | 0.00 | 0.00 | 62 | 1024.8 |
| 20260510201501 | 46 | 274 | 10.4 | 12.2 | 0.00 | 0.00 | 0.00 | 62 | 1024.6 |
| 20260510201002 | 46 | 262 | 6.1 | 7.8 | 0.00 | 0.00 | 0.00 | 66 | 1024.9 |
| 20260510200502 | 46 | 255 | 7.8 | 8.7 | 0.00 | 0.00 | 0.00 | 65 | 1024.6 |
| 20260510200001 | 46 | 283 | 6.1 | 8.7 | 0.00 | 0.00 | 0.00 | 64 | 1024.6 |
| 20260510195502 | 45 | 259 | 9.6 | 9.6 | 0.00 | 0.00 | 0.00 | 66 | 1024.8 |
| 20260510195001 | 45 | 274 | 9.6 | 11.3 | 0.00 | 0.00 | 0.00 | 66 | 1024.9 |
| 20260510192002 | 45 | 273 | 12.2 | 13.0 | 0.00 | 0.00 | 0.00 | 71 | 1024.7 |
| 20260510190501 | 45 | 284 | 8.7 | 9.6 | 0.00 | 0.00 | 0.00 | 69 | 1024.4 |
| 20260510190002 | 45 | 270 | 12.2 | 13.9 | 0.00 | 0.00 | 0.00 | 67 | 1024.4 |
| 20260510185502 | 45 | 276 | 8.7 | 11.3 | 0.00 | 0.00 | 0.00 | 67 | 1024.3 |
| 20260510182002 | 44 | 273 | 4.3 | 5.2 | 0.00 | 0.00 | 0.00 | 72 | 1024.0 |
| 20260510181501 | 44 | 306 | 7.0 | 8.7 | 0.00 | 0.00 | 0.00 | 70 | 1024.0 |
| 20260510181002 | 44 | 259 | 8.7 | 10.4 | 0.00 | 0.00 | 0.00 | 71 | 1024.0 |
| 20260510180501 | 45 | 303 | 7.8 | 10.4 | 0.00 | 0.00 | 0.00 | 71 | 1024.2 |
| 20260510175501 | 44 | 3 | 3.5 | 4.3 | 0.00 | 0.00 | 0.00 | 73 | 1023.9 |
| 20260510173502 | 45 | 309 | 6.1 | 8.7 | 0.00 | 0.00 | 0.00 | 71 | 1023.8 |
| 20260510172001 | 45 | 265 | 8.7 | 10.4 | 0.00 | 0.00 | 0.00 | 70 | 1023.3 |
| 20260510171502 | 44 | 271 | 11.3 | 12.2 | 0.00 | 0.00 | 0.00 | 68 | 1023.5 |
| 20260510171001 | 46 | 279 | 13.9 | 15.6 | 0.00 | 0.00 | 0.00 | 71 | 1023.7 |
| 20260510170001 | 45 | 283 | 11.3 | 15.6 | 0.00 | 0.00 | 0.00 | 68 | 1023.5 |
| 20260510165502 | 44 | 254 | 9.6 | 9.6 | 0.00 | 0.00 | 0.00 | 70 | 1023.6 |
| 20260510165002 | 44 | 285 | 9.6 | 11.3 | 0.00 | 0.00 | 0.00 | 70 | 1023.7 |
| 20260510164002 | 44 | 232 | 7.0 | 8.7 | 0.00 | 0.00 | 0.00 | 72 | 1023.5 |
| 20260510163501 | 46 | 330 | 7.0 | 8.7 | 0.00 | 0.00 | 0.00 | 69 | 1023.3 |
| 20260510163002 | 46 | 282 | 9.6 | 11.3 | 0.00 | 0.00 | 0.00 | 70 | 1023.2 |
| 20260510162501 | 46 | 317 | 8.7 | 10.4 | 0.00 | 0.00 | 0.00 | 70 | 1023.1 |
| 20260510161501 | 46 | 266 | 5.2 | 6.1 | 0.00 | 0.00 | 0.00 | 67 | 1023.2 |
| 20260510161002 | 45 | 298 | 12.2 | 13.9 | 0.00 | 0.00 | 0.00 | 69 | 1022.7 |
| 20260510160502 | 45 | 312 | 8.7 | 10.4 | 0.00 | 0.00 | 0.00 | 67 | 1023.0 |
| 20260510160001 | 45 | 265 | 14.8 | 18.2 | 0.00 | 0.00 | 0.00 | 70 | 1022.8 |
| 20260510153002 | 46 | 281 | 6.1 | 9.6 | 0.00 | 0.00 | 0.00 | 68 | 1022.7 |
| 20260510151501 | 45 | 291 | 9.6 | 11.3 | 0.00 | 0.00 | 0.00 | 68 | 1022.7 |
| 20260510151002 | 45 | 282 | 8.7 | 10.4 | 0.00 | 0.00 | 0.00 | 68 | 1022.5 |
| 20260510150002 | 45 | 309 | 8.7 | 9.6 | 0.00 | 0.00 | 0.00 | 69 | 1022.5 |
| 20260510145501 | 45 | 258 | 11.3 | 12.2 | 0.00 | 0.00 | 0.00 | 69 | 1022.5 |
| 20260510145002 | 45 | 268 | 9.6 | 10.4 | 0.00 | 0.00 | 0.00 | 66 | 1022.6 |
| 20260510144501 | 44 | 277 | 12.2 | 13.0 | 0.00 | 0.00 | 0.00 | 64 | 1022.5 |
| 20260510144002 | 44 | 278 | 12.2 | 13.0 | 0.00 | 0.00 | 0.00 | 65 | 1022.5 |
| 20260510143501 | 44 | 274 | 9.6 | 9.6 | 0.00 | 0.00 | 0.00 | 64 | 1022.6 |
| 20260510142502 | 44 | 267 | 8.7 | 9.6 | 0.00 | 0.00 | 0.00 | 64 | 1022.6 |
| 20260510142002 | 45 | 284 | 9.6 | 10.4 | 0.00 | 0.00 | 0.00 | 64 | 1022.5 |
| 20260510141002 | 44 | 270 | 8.7 | 11.3 | 0.00 | 0.00 | 0.00 | 65 | 1022.4 |
| 20260510140502 | 44 | 289 | 5.2 | 7.8 | 0.00 | 0.00 | 0.00 | 68 | 1022.3 |
| 20260510140002 | 44 | 289 | 6.1 | 7.8 | 0.00 | 0.00 | 0.00 | 69 | 1022.6 |
| 20260510135501 | 43 | 268 | 10.4 | 12.2 | 0.00 | 0.00 | 0.00 | 73 | 1022.6 |
| 20260510135002 | 43 | 267 | 9.6 | 11.3 | 0.00 | 0.00 | 0.00 | 72 | 1022.4 |
| 20260510134502 | 43 | 267 | 8.7 | 9.6 | 0.00 | 0.00 | 0.00 | 75 | 1022.5 |
| 20260510133502 | 42 | 291 | 7.8 | 8.7 | 0.00 | 0.00 | 0.00 | 75 | 1022.6 |
| 20260510133001 | 43 | 296 | 7.8 | 9.6 | 0.00 | 0.00 | 0.00 | 75 | 1022.6 |
| 20260510132502 | 42 | 261 | 9.6 | 10.4 | 0.00 | 0.00 | 0.00 | 78 | 1022.4 |
| 20260510132001 | 42 | 269 | 7.8 | 8.7 | 0.00 | 0.00 | 0.00 | 78 | 1022.4 |
| 20260510131502 | 42 | 252 | 7.8 | 9.6 | 0.00 | 0.00 | 0.00 | 79 | 1022.4 |
| 20260510131002 | 42 | 283 | 7.8 | 8.7 | 0.00 | 0.00 | 0.00 | 78 | 1022.6 |
| 20260510130002 | 42 | 258 | 8.7 | 9.6 | 0.00 | 0.00 | 0.00 | 83 | 1022.4 |
| 20260510125501 | 41 | 280 | 7.0 | 7.8 | 0.00 | 0.00 | 0.00 | 81 | 1022.3 |
| 20260510124002 | 41 | 286 | 6.1 | 7.8 | 0.00 | 0.00 | 0.00 | 79 | 1022.5 |
| 20260510123001 | 42 | 335 | 2.6 | 4.3 | 0.00 | 0.00 | 0.00 | 81 | 1022.5 |
| 20260510122001 | 40 | 290 | 5.2 | 6.1 | 0.00 | 0.00 | 0.00 | 82 | 1022.5 |
| 20260510120502 | 40 | 263 | 5.2 | 6.1 | 0.00 | 0.00 | 0.00 | 84 | 1022.4 |
| 20260510120001 | 40 | 285 | 4.3 | 5.2 | 0.00 | 0.00 | 0.00 | 85 | 1022.1 |
| 20260510115001 | 39 | 229 | 1.7 | 2.6 | 0.00 | 0.00 | 0.00 | 86 | 1022.3 |
| 20260510112002 | 39 | 264 | 3.5 | 4.3 | 0.00 | 0.00 | 0.00 | 87 | 1022.0 |
| 20260510111502 | 39 | 290 | 4.3 | 6.1 | 0.00 | 0.00 | 0.00 | 87 | 1021.8 |
| 20260510110502 | 39 | 242 | 1.7 | 2.6 | 0.00 | 0.00 | 0.00 | 87 | 1021.8 |
| 20260510110001 | 39 | 276 | 6.1 | 7.8 | 0.00 | 0.00 | 0.00 | 89 | 1021.7 |
| 20260510105502 | 39 | 237 | 4.3 | 5.2 | 0.00 | 0.00 | 0.00 | 88 | 1021.6 |
| 20260510105001 | 40 | 248 | 6.1 | 7.8 | 0.00 | 0.00 | 0.00 | 88 | 1021.5 |
| 20260510104002 | 39 | 282 | 7.0 | 7.8 | 0.00 | 0.00 | 0.00 | 89 | 1021.4 |
| 20260510103003 | 38 | 269 | 4.3 | 5.2 | 0.00 | 0.00 | 0.00 | 90 | 1021.2 |
| 20260510102002 | 39 | 301 | 2.6 | 3.5 | 0.00 | 0.00 | 0.00 | 90 | 1020.8 |
| 20260510101502 | 38 | 308 | 3.5 | 3.5 | 0.00 | 0.00 | 0.00 | 89 | 1020.7 |
| 20260510101001 | 38 | 295 | 1.7 | 2.6 | 0.00 | 0.00 | 0.00 | 89 | 1020.8 |
| 20260510095502 | 39 | 293 | 2.6 | 3.5 | 0.00 | 0.00 | 0.00 | 89 | 1020.7 |
| 20260510094501 | 38 | 285 | 0.9 | 1.7 | 0.00 | 0.00 | 0.00 | 88 | 1020.5 |
| 20260510094002 | 39 | 252 | 3.5 | 4.3 | 0.00 | 0.00 | 0.00 | 88 | 1020.7 |
| 20260510093501 | 39 | 286 | 1.7 | 1.7 | 0.00 | 0.00 | 0.00 | 87 | 1020.5 |
| 20260510093002 | 39 | 309 | 1.7 | 2.6 | 0.00 | 0.00 | 0.00 | 88 | 1020.3 |
| 20260510092501 | 39 | 286 | 2.6 | 3.5 | 0.00 | 0.00 | 0.00 | 87 | 1020.1 |
| 20260510092002 | 39 | 308 | 2.6 | 3.5 | 0.00 | 0.00 | 0.00 | 87 | 1020.4 |
| 20260510091502 | 39 | 273 | 3.5 | 5.2 | 0.00 | 0.00 | 0.00 | 87 | 1020.1 |
| 20260510091001 | 39 | 303 | 3.5 | 4.3 | 0.00 | 0.00 | 0.00 | 87 | 1020.2 |
| 20260510090502 | 39 | 337 | 4.3 | 5.2 | 0.00 | 0.00 | 0.00 | 87 | 1020.0 |
| 20260510085502 | 39 | 303 | 3.5 | 4.3 | 0.00 | 0.00 | 0.00 | 87 | 1019.9 |
| 20260510085002 | 39 | 272 | 5.2 | 5.2 | 0.00 | 0.00 | 0.00 | 87 | 1020.1 |
| 20260510084501 | 39 | 273 | 3.5 | 4.3 | 0.00 | 0.00 | 0.00 | 87 | 1020.0 |
| 20260510084002 | 39 | 323 | 5.2 | 6.1 | 0.00 | 0.00 | 0.00 | 88 | 1020.0 |
| 20260510083501 | 39 | 295 | 7.0 | 7.8 | 0.00 | 0.00 | 0.00 | 86 | 1020.0 |
| 20260510081502 | 39 | 273 | 3.5 | 3.5 | 0.00 | 0.00 | 0.00 | 84 | 1019.9 |
| 20260510081002 | 39 | 302 | 5.2 | 6.1 | 0.00 | 0.00 | 0.00 | 85 | 1019.7 |
| 20260510075502 | 39 | 256 | 2.6 | 3.5 | 0.00 | 0.00 | 0.00 | 83 | 1019.3 |
| 20260510075001 | 39 | 300 | 4.3 | 5.2 | 0.00 | 0.00 | 0.00 | 83 | 1019.1 |
| 20260510074502 | 39 | 282 | 5.2 | 6.1 | 0.00 | 0.00 | 0.00 | 83 | 1019.1 |
| 20260510074001 | 40 | 273 | 5.2 | 6.1 | 0.00 | 0.00 | 0.00 | 84 | 1019.1 |
| 20260510072502 | 40 | 267 | 4.3 | 5.2 | 0.00 | 0.00 | 0.00 | 83 | 1018.9 |
| 20260510072002 | 39 | 292 | 3.5 | 4.3 | 0.00 | 0.00 | 0.00 | 83 | 1019.0 |
| 20260510071501 | 40 | 7 | 1.7 | 2.6 | 0.00 | 0.00 | 0.00 | 82 | 1018.8 |
| 20260510071002 | 40 | 306 | 1.7 | 2.6 | 0.00 | 0.00 | 0.00 | 83 | 1018.6 |
| 20260510065001 | 39 | 291 | 3.5 | 3.5 | 0.00 | 0.00 | 0.00 | 81 | 1018.4 |
| 20260510063502 | 39 | 277 | 1.7 | 2.6 | 0.00 | 0.00 | 0.00 | 80 | 1018.5 |
| 20260510063002 | 38 | 2 | 1.7 | 2.6 | 0.00 | 0.00 | 0.00 | 80 | 1018.5 |
| 20260510062002 | 36 | 151 | 0.0 | 0.0 | 0.00 | 0.00 | 0.00 | 82 | 1018.4 |
| 20260510061002 | 37 | 117 | 0.0 | 0.0 | 0.00 | 0.00 | 0.00 | 78 | 1018.2 |
| 20260510060501 | 38 | 159 | 0.9 | 1.7 | 0.00 | 0.00 | 0.00 | 78 | 1017.9 |
| 20260510054502 | 39 | 210 | 0.0 | 0.0 | 0.00 | 0.00 | 0.00 | 74 | 1017.7 |
| 20260510053502 | 40 | 228 | 0.0 | 0.0 | 0.00 | 0.00 | 0.00 | 73 | 1017.8 |
| 20260510052002 | 40 | 320 | 1.7 | 1.7 | 0.00 | 0.00 | 0.00 | 72 | 1017.5 |
| 20260510051501 | 41 | 2 | 1.7 | 2.6 | 0.00 | 0.00 | 0.00 | 70 | 1017.5 |
| 20260510050501 | 41 | 314 | 1.7 | 3.5 | 0.00 | 0.00 | 0.00 | 68 | 1017.6 |
| 20260510050002 | 41 | 3 | 1.7 | 2.6 | 0.00 | 0.00 | 0.00 | 69 | 1017.4 |
| 20260510045501 | 41 | 334 | 1.7 | 2.6 | 0.00 | 0.00 | 0.00 | 68 | 1017.5 |
| 20260510044502 | 42 | 328 | 2.6 | 3.5 | 0.00 | 0.00 | 0.00 | 70 | 1017.2 |
| 20260510044001 | 42 | 295 | 0.9 | 1.7 | 0.00 | 0.00 | 0.00 | 68 | 1017.4 |
| 20260510043001 | 42 | 285 | 1.7 | 2.6 | 0.00 | 0.00 | 0.00 | 68 | 1017.3 |
| 20260510041002 | 42 | 312 | 4.3 | 5.2 | 0.00 | 0.00 | 0.00 | 68 | 1016.8 |
| 20260510040502 | 42 | 0 | 2.6 | 2.6 | 0.00 | 0.00 | 0.00 | 66 | 1016.8 |
| 20260510040002 | 42 | 289 | 2.6 | 4.3 | 0.00 | 0.00 | 0.00 | 67 | 1016.6 |
| 20260510035501 | 43 | 353 | 5.2 | 6.1 | 0.00 | 0.00 | 0.00 | 65 | 1016.4 |
| 20260510034501 | 43 | 20 | 2.6 | 3.5 | 0.00 | 0.00 | 0.00 | 64 | 1016.5 |
| 20260510034002 | 43 | 292 | 2.6 | 2.6 | 0.00 | 0.00 | 0.00 | 64 | 1016.4 |
| 20260510033501 | 43 | 273 | 2.6 | 2.6 | 0.00 | 0.00 | 0.00 | 64 | 1016.4 |
| 20260510032502 | 43 | 333 | 6.1 | 8.7 | 0.00 | 0.00 | 0.00 | 62 | 1016.4 |
| 20260510032001 | 43 | 1 | 1.7 | 2.6 | 0.00 | 0.00 | 0.00 | 63 | 1016.3 |
| 20260510031501 | 43 | 16 | 3.5 | 4.3 | 0.00 | 0.00 | 0.00 | 63 | 1016.5 |
| 20260510030501 | 43 | 308 | 3.5 | 6.1 | 0.00 | 0.00 | 0.00 | 64 | 1016.3 |
| 20260510030002 | 44 | 320 | 5.2 | 6.1 | 0.00 | 0.00 | 0.00 | 64 | 1016.3 |
| 20260510025002 | 44 | 287 | 8.7 | 9.6 | 0.00 | 0.00 | 0.00 | 66 | 1016.2 |
| 20260510024501 | 44 | 346 | 3.5 | 4.3 | 0.00 | 0.00 | 0.00 | 66 | 1016.0 |
| 20260510024003 | 44 | 315 | 3.5 | 4.3 | 0.00 | 0.00 | 0.00 | 68 | 1016.0 |
| 20260510023502 | 44 | 325 | 1.7 | 2.6 | 0.00 | 0.00 | 0.00 | 70 | 1016.0 |
| 20260510023001 | 44 | 238 | 0.9 | 1.7 | 0.00 | 0.00 | 0.00 | 69 | 1016.1 |
| 20260510022502 | 44 | 293 | 1.7 | 1.7 | 0.00 | 0.00 | 0.00 | 69 | 1016.1 |
| 20260510022001 | 44 | 283 | 0.9 | 1.7 | 0.00 | 0.00 | 0.00 | 68 | 1016.2 |
| 20260510021502 | 44 | 270 | 3.5 | 4.3 | 0.00 | 0.00 | 0.00 | 69 | 1015.9 |
| 20260510015501 | 43 | 228 | 0.9 | 1.7 | 0.00 | 0.00 | 0.00 | 69 | 1015.4 |
| 20260510015002 | 43 | 236 | 0.9 | 1.7 | 0.00 | 0.00 | 0.00 | 68 | 1015.3 |
| 20260510014501 | 43 | 220 | 0.9 | 1.7 | 0.00 | 0.00 | 0.00 | 70 | 1015.4 |
| 20260510012501 | 45 | 295 | 1.7 | 1.7 | 0.00 | 0.00 | 0.00 | 67 | 1014.9 |
| 20260510011502 | 45 | 326 | 2.6 | 3.5 | 0.00 | 0.00 | 0.00 | 67 | 1014.6 |
| 20260510011001 | 45 | 305 | 1.7 | 2.6 | 0.00 | 0.00 | 0.00 | 67 | 1014.3 |
| 20260510010502 | 45 | 331 | 4.3 | 5.2 | 0.00 | 0.00 | 0.00 | 66 | 1014.6 |
| 20260510005502 | 46 | 344 | 1.7 | 2.6 | 0.00 | 0.00 | 0.00 | 66 | 1014.4 |
| 20260510004502 | 46 | 351 | 2.6 | 3.5 | 0.00 | 0.00 | 0.00 | 64 | 1014.1 |
| 20260510004002 | 46 | 290 | 5.2 | 7.8 | 0.00 | 0.00 | 0.00 | 64 | 1013.9 |
| 20260510003502 | 47 | 338 | 4.3 | 6.1 | 0.00 | 0.00 | 0.00 | 63 | 1013.9 |
| 20260510003003 | 47 | 337 | 4.3 | 5.2 | 0.00 | 0.00 | 0.00 | 64 | 1013.8 |
| 20260510002501 | 48 | 339 | 3.5 | 5.2 | 0.00 | 0.00 | 0.00 | 63 | 1013.7 |
| 20260510000501 | 48 | 339 | 1.7 | 2.6 | 0.00 | 0.00 | 0.00 | 67 | 1013.1 |
| 20260509235501 | 48 | 29 | 7.0 | 9.6 | 0.00 | 0.00 | 0.00 | 66 | 1012.8 |
| 20260509235002 | 48 | 351 | 5.2 | 6.1 | 0.00 | 0.00 | 0.00 | 66 | 1012.7 |
| 20260509234001 | 49 | 359 | 7.8 | 8.7 | 0.00 | 0.00 | 0.00 | 64 | 1012.4 |
| 20260509233502 | 49 | 9 | 3.5 | 5.2 | 0.00 | 0.00 | 0.00 | 64 | 1012.1 |
| 20260509231001 | 50 | 5 | 7.8 | 9.6 | 0.00 | 0.00 | 0.00 | 58 | 1011.6 |